Weather Roundup
Issued by NWS Springfield, MO

Current Version | Previous Version | Text Only | Print | Product List | Glossary On
Versions: 1 2 3 4 5 6 7 8 9 10 11 12 13 14 15 16 17 18 19 20 21 22 23 24 25 26 27 28 29 30 31 32 33 34 35 36 37 38 39 40 41 42 43 44 45 46 47 48 49 50
000
NZUS99 KSGF 311207
HRRSGF

HOURLY WEATHER
NATIONAL WEATHER SERVICE SPRINGFIELD MO
700 AM CDT TUE MAY 31 2016

......SGF CWA......

CITY           SKY/WX    TMP DP  RH WIND       PRES   REMARKS
SPRINGFIELD    CLOUDY    65  62  90 SE9       29.95S
6HR MIN TEMP:  65; 6HR MAX TEMP:  66; 6HR PCP:  0.01;

JOPLIN         CLOUDY    66  64  93 SE5       29.94S
6HR MIN TEMP:  64; 6HR MAX TEMP:  67; 6HR PCP: TRACE;

WEST PLAINS    PTSUNNY   65  61  87 N3        30.00R
6HR MIN TEMP:  64; 6HR MAX TEMP:  67;

ROLLA          CLOUDY    63  61  93 E8        29.98R
6HR MIN TEMP:  62; 6HR MAX TEMP:  64; 6HR PCP:  0.02;

BRANSON        CLOUDY    63  63 100 CALM      29.98S FOG

......SURROUNDING SGF CWA......

CITY           SKY/WX    TMP DP  RH WIND       PRES   REMARKS
CHANUTE        MOCLDY    63  62  97 CALM      29.92S FOG
PARSONS        CLOUDY    63  62  97 CALM      29.94R
COFFEYVILLE    CLOUDY    63  61  93 CALM      29.92R
EMPORIA        CLOUDY    60  60 100 S3        29.92S
GROVE OK       CLOUDY    64  64 100 CALM      29.94R FOG
ROGERS AR      MOSUNNY   64  63  96 SE6       29.96S
SILOAM SPRINGS CLOUDY    63  55  77 CALM      29.95S
HARRISON AR    CLOUDY    64  62  93 E5        29.97S
NEAR YELLVILLE CLOUDY   N/A N/A N/A CALM      29.94S

......KANSAS AND MISSOURI......

CITY           SKY/WX    TMP DP  RH WIND       PRES   REMARKS
KANSAS CTY INT PTSUNNY   64  61  90 SE7       29.94F
DOWNTOWN KC    CLOUDY    66  62  87 E6        29.94F
COLUMBIA       CLOUDY    65  63  93 SE5       29.97S
SEDALIA        LGT RAIN  65  62  90 S3        29.98R
ST JOSEPH      CLOUDY    64  61  90 S6        29.92F
ST LOUIS       LGT RAIN  72  62  71 S15G23    30.01R
SPIRIT OF STL  CLOUDY    67  64  90 SW3       30.00R
KIRKSVILLE     CLOUDY    64  62  93 S3        30.00R
WICHITA        LGT RAIN  63  60  90 N9        29.94S
TOPEKA         MOCLDY    64  61  90 CALM      29.91F
OLATHE         MOSUNNY   62  60  93 E6        29.94F

......TENNESSEE......

CITY           SKY/WX    TMP DP  RH WIND       PRES   REMARKS
MEMPHIS        RAIN      70  67  90 CALM      29.99F FOG
NASHVILLE      CLOUDY    68  63  84 CALM      29.99R

......ARKANSAS.......

CITY           SKY/WX    TMP DP  RH WIND       PRES   REMARKS
FAYETTEVILLE   CLOUDY    60  60 100 CALM      29.95S
FT SMITH       CLEAR     65  62  90 E3        29.93R
LITTLE ROCK    PTSUNNY   69  65  86 E5        29.95S

......OKLAHOMA.......

CITY           SKY/WX    TMP DP  RH WIND       PRES   REMARKS
TULSA          CLOUDY    66  66 100 SE6       29.89S FOG
PONCA CITY     CLOUDY    66  64  93 SE3       29.93R
MCALESTER      CLOUDY    68  65  90 CALM      29.92R FOG
OKLAHOMA CITY  MOCLDY    68  65  90 CALM      29.89R

......IOWA............

CITY           SKY/WX    TMP DP  RH WIND       PRES   REMARKS
DES MOINES     CLOUDY    66  59  78 S7        29.94R
QUAD CITIES    CLOUDY    71  64  78 CALM      29.96R

......ILLINOIS........

CITY           SKY/WX    TMP DP  RH WIND       PRES   REMARKS
QUINCY         CLOUDY    67  62  84 S5        29.99R
CHICAGO        PTSUNNY   69  54  58 E8        30.00R




USA.gov is the U.S. government's official web portal to all federal, state and local government web resources and services.